contact:dominique.lefevre@mio.osupytheas.fr, maurice.libes@osupytheas.fr, didier.mallarino@osupytheas.fr
Project:EMSO http://www.emso-fr.org/EMSO-France
Depth: 2436.0 m
Title:EMSO Ligure Ouest : Data MII capteur MICROCAT
DateTime_Computer,Latitude,Longitude,Temperature,Conductivity,Pressure,DateTime_Instrument
DateTime_Computer,Latitude,Longitude,degC,S m-1,dbar,DateTime_Instrument
2023-11-17T00:00:23Z,42.805,6.029,13.3102,4.60170,2470.707,2023-11-17T02:02:50Z
2023-11-17T00:03:26Z,42.805,6.029,13.3120,4.60144,2470.73,2023-11-17T02:05:53Z
2023-11-17T00:06:29Z,42.805,6.029,13.3112,4.60144,2470.707,2023-11-17T02:08:56Z
2023-11-17T00:09:32Z,42.805,6.029,13.3123,4.60161,2470.707,2023-11-17T02:11:59Z
2023-11-17T00:12:35Z,42.805,6.029,13.3125,4.60135,2470.717,2023-11-17T02:15:02Z
2023-11-17T00:15:38Z,42.805,6.029,13.3113,4.60135,2470.73,2023-11-17T02:18:05Z
2023-11-17T00:18:41Z,42.805,6.029,13.3109,4.60136,2470.717,2023-11-17T02:21:08Z
2023-11-17T00:21:44Z,42.805,6.029,13.3132,4.60146,2470.73,2023-11-17T02:24:11Z
2023-11-17T00:24:47Z,42.805,6.029,13.3116,4.60144,2470.693,2023-11-17T02:27:15Z
2023-11-17T00:27:50Z,42.805,6.029,13.3107,4.60170,2470.693,2023-11-17T02:30:18Z
2023-11-17T00:30:53Z,42.805,6.029,13.3085,4.60165,2470.693,2023-11-17T02:33:21Z
2023-11-17T00:33:56Z,42.805,6.029,13.3111,4.60167,2470.717,2023-11-17T02:36:24Z
2023-11-17T00:37:00Z,42.805,6.029,13.3114,4.60173,2470.707,2023-11-17T02:39:27Z
2023-11-17T00:40:03Z,42.805,6.029,13.3127,4.60180,2470.693,2023-11-17T02:42:30Z
2023-11-17T00:43:06Z,42.805,6.029,13.3090,4.60173,2470.693,2023-11-17T02:45:33Z
2023-11-17T00:46:09Z,42.805,6.029,13.3085,4.60199,2470.74,2023-11-17T02:48:36Z
2023-11-17T00:49:12Z,42.805,6.029,13.3098,4.60190,2470.707,2023-11-17T02:51:39Z
2023-11-17T00:52:15Z,42.805,6.029,13.3102,4.60162,2470.684,2023-11-17T02:54:42Z
2023-11-17T00:55:18Z,42.805,6.029,13.3115,4.60160,2470.707,2023-11-17T02:57:45Z
2023-11-17T00:58:21Z,42.805,6.029,13.3117,4.60167,2470.693,2023-11-17T03:00:48Z
2023-11-17T01:01:24Z,42.805,6.029,13.3096,4.60199,2470.67,2023-11-17T03:03:52Z
2023-11-17T01:04:27Z,42.805,6.029,13.3101,4.60196,2470.679,2023-11-17T03:06:55Z
2023-11-17T01:07:30Z,42.805,6.029,13.3053,4.60147,2470.707,2023-11-17T03:09:58Z
2023-11-17T01:10:33Z,42.805,6.029,13.3047,4.60160,2470.73,2023-11-17T03:13:01Z
2023-11-17T01:13:37Z,42.805,6.029,13.3041,4.60132,2470.707,2023-11-17T03:16:04Z
2023-11-17T01:16:40Z,42.805,6.029,13.3038,4.60129,2470.693,2023-11-17T03:19:07Z
2023-11-17T01:19:43Z,42.805,6.029,13.3041,4.60146,2470.693,2023-11-17T03:22:10Z
2023-11-17T01:22:46Z,42.805,6.029,13.3046,4.60131,2470.684,2023-11-17T03:25:13Z
2023-11-17T01:25:49Z,42.805,6.029,13.3043,4.60128,2470.646,2023-11-17T03:28:16Z
2023-11-17T01:28:52Z,42.805,6.029,13.3043,4.60119,2470.707,2023-11-17T03:31:19Z
2023-11-17T01:31:55Z,42.805,6.029,13.3041,4.60121,2470.684,2023-11-17T03:34:22Z
2023-11-17T01:34:58Z,42.805,6.029,13.3037,4.60110,2470.646,2023-11-17T03:37:25Z
2023-11-17T01:38:01Z,42.805,6.029,13.3034,4.60137,2470.684,2023-11-17T03:40:29Z
2023-11-17T01:41:04Z,42.805,6.029,13.3039,4.60163,2470.684,2023-11-17T03:43:32Z
2023-11-17T01:44:07Z,42.805,6.029,13.3039,4.60122,2470.67,2023-11-17T03:46:35Z
2023-11-17T01:47:10Z,42.805,6.029,13.3034,4.60119,2470.693,2023-11-17T03:49:38Z
2023-11-17T01:50:14Z,42.805,6.029,13.3039,4.60109,2470.646,2023-11-17T03:52:41Z
2023-11-17T01:53:17Z,42.805,6.029,13.3043,4.60115,2470.684,2023-11-17T03:55:44Z
2023-11-17T01:56:20Z,42.805,6.029,13.3044,4.60120,2470.707,2023-11-17T03:58:47Z
2023-11-17T01:59:23Z,42.805,6.029,13.3038,4.60111,2470.646,2023-11-17T04:01:50Z
2023-11-17T02:02:26Z,42.805,6.029,13.3037,4.60110,2470.693,2023-11-17T04:04:53Z
2023-11-17T02:05:29Z,42.805,6.029,13.3034,4.60110,2470.693,2023-11-17T04:07:56Z
2023-11-17T02:08:32Z,42.805,6.029,13.3037,4.60109,2470.656,2023-11-17T04:10:59Z
2023-11-17T02:11:35Z,42.805,6.029,13.3040,4.60114,2470.67,2023-11-17T04:14:02Z
2023-11-17T02:14:38Z,42.805,6.029,13.3039,4.60110,2470.67,2023-11-17T04:17:05Z
2023-11-17T02:17:41Z,42.805,6.029,13.3035,4.60110,2470.684,2023-11-17T04:20:09Z
2023-11-17T02:20:44Z,42.805,6.029,13.3037,4.60111,2470.67,2023-11-17T04:23:12Z
2023-11-17T02:23:47Z,42.805,6.029,13.3034,4.60112,2470.67,2023-11-17T04:26:15Z
2023-11-17T02:26:51Z,42.805,6.029,13.3037,4.60115,2470.646,2023-11-17T04:29:18Z
2023-11-17T02:29:54Z,42.805,6.029,13.3032,4.60127,2470.684,2023-11-17T04:32:21Z
2023-11-17T02:32:57Z,42.805,6.029,13.3030,4.60109,2470.684,2023-11-17T04:35:24Z
2023-11-17T02:36:00Z,42.805,6.029,13.3037,4.60106,2470.646,2023-11-17T04:38:27Z
2023-11-17T02:39:03Z,42.805,6.029,13.3038,4.60110,2470.661,2023-11-17T04:41:30Z
2023-11-17T02:42:06Z,42.805,6.029,13.3033,4.60107,2470.661,2023-11-17T04:44:33Z
2023-11-17T02:45:09Z,42.805,6.029,13.3039,4.60107,2470.661,2023-11-17T04:47:36Z
2023-11-17T02:48:12Z,42.805,6.029,13.3036,4.60110,2470.67,2023-11-17T04:50:39Z
2023-11-17T02:51:15Z,42.805,6.029,13.3034,4.60107,2470.67,2023-11-17T04:53:43Z
2023-11-17T02:54:18Z,42.805,6.029,13.3035,4.60107,2470.646,2023-11-17T04:56:46Z
2023-11-17T02:57:21Z,42.805,6.029,13.3031,4.60105,2470.684,2023-11-17T04:59:49Z
2023-11-17T03:00:24Z,42.805,6.029,13.3037,4.60112,2470.67,2023-11-17T05:02:52Z
2023-11-17T03:03:27Z,42.805,6.029,13.3034,4.60108,2470.637,2023-11-17T05:05:55Z
2023-11-17T03:06:31Z,42.805,6.029,13.3035,4.60106,2470.661,2023-11-17T05:08:58Z
2023-11-17T03:09:34Z,42.805,6.029,13.3028,4.60104,2470.67,2023-11-17T05:12:01Z
2023-11-17T03:12:37Z,42.805,6.029,13.3034,4.60104,2470.67,2023-11-17T05:15:04Z
2023-11-17T03:15:40Z,42.805,6.029,13.3032,4.60112,2470.684,2023-11-17T05:18:07Z
2023-11-17T03:18:43Z,42.805,6.029,13.3033,4.60105,2470.646,2023-11-17T05:21:10Z
2023-11-17T03:21:46Z,42.805,6.029,13.3034,4.60103,2470.67,2023-11-17T05:24:13Z
2023-11-17T03:24:49Z,42.805,6.029,13.3029,4.60104,2470.67,2023-11-17T05:27:16Z
2023-11-17T03:27:52Z,42.805,6.029,13.3032,4.60102,2470.67,2023-11-17T05:30:19Z
2023-11-17T03:30:55Z,42.805,6.029,13.3032,4.60104,2470.67,2023-11-17T05:33:23Z
2023-11-17T03:33:58Z,42.805,6.029,13.3034,4.60103,2470.661,2023-11-17T05:36:26Z
2023-11-17T03:37:01Z,42.805,6.029,13.3030,4.60102,2470.646,2023-11-17T05:39:29Z
2023-11-17T03:40:05Z,42.805,6.029,13.3035,4.60116,2470.684,2023-11-17T05:42:32Z
2023-11-17T03:43:08Z,42.805,6.029,13.3031,4.60104,2470.707,2023-11-17T05:45:35Z
2023-11-17T03:46:11Z,42.805,6.029,13.3032,4.60104,2470.646,2023-11-17T05:48:38Z
2023-11-17T03:49:14Z,42.805,6.029,13.3031,4.60103,2470.684,2023-11-17T05:51:41Z
2023-11-17T03:52:17Z,42.805,6.029,13.3034,4.60103,2470.646,2023-11-17T05:54:44Z
2023-11-17T03:55:20Z,42.805,6.029,13.3033,4.60102,2470.684,2023-11-17T05:57:47Z
2023-11-17T03:58:23Z,42.805,6.029,13.3032,4.60104,2470.684,2023-11-17T06:00:50Z
2023-11-17T04:01:26Z,42.805,6.029,13.3030,4.60104,2470.646,2023-11-17T06:03:53Z
2023-11-17T04:04:29Z,42.805,6.029,13.3030,4.60104,2470.661,2023-11-17T06:06:57Z
2023-11-17T04:07:32Z,42.805,6.029,13.3030,4.60104,2470.624,2023-11-17T06:10:00Z
2023-11-17T04:10:35Z,42.805,6.029,13.3034,4.60103,2470.646,2023-11-17T06:13:03Z
2023-11-17T04:13:38Z,42.805,6.029,13.3031,4.60102,2470.646,2023-11-17T06:16:06Z
2023-11-17T04:16:41Z,42.805,6.029,13.3031,4.60102,2470.646,2023-11-17T06:19:09Z
2023-11-17T04:19:45Z,42.805,6.029,13.3034,4.60108,2470.646,2023-11-17T06:22:12Z
2023-11-17T04:22:48Z,42.805,6.029,13.3031,4.60106,2470.684,2023-11-17T06:25:15Z
2023-11-17T04:25:51Z,42.805,6.029,13.3031,4.60102,2470.661,2023-11-17T06:28:18Z
2023-11-17T04:28:54Z,42.805,6.029,13.3033,4.60103,2470.646,2023-11-17T06:31:21Z
2023-11-17T04:31:57Z,42.805,6.029,13.3033,4.60109,2470.646,2023-11-17T06:34:24Z
2023-11-17T04:35:00Z,42.805,6.029,13.3031,4.60102,2470.661,2023-11-17T06:37:27Z
2023-11-17T04:38:03Z,42.805,6.029,13.3032,4.60103,2470.67,2023-11-17T06:40:30Z
2023-11-17T04:41:06Z,42.805,6.029,13.3030,4.60103,2470.684,2023-11-17T06:43:34Z
2023-11-17T04:44:09Z,42.805,6.029,13.3034,4.60104,2470.646,2023-11-17T06:46:37Z
2023-11-17T04:47:12Z,42.805,6.029,13.3034,4.60104,2470.67,2023-11-17T06:49:40Z
2023-11-17T04:50:15Z,42.805,6.029,13.3033,4.60110,2470.684,2023-11-17T06:52:43Z
2023-11-17T04:53:19Z,42.805,6.029,13.3034,4.60103,2470.67,2023-11-17T06:55:46Z
2023-11-17T04:56:22Z,42.805,6.029,13.3031,4.60107,2470.67,2023-11-17T06:58:49Z
2023-11-17T04:59:25Z,42.805,6.029,13.3031,4.60106,2470.684,2023-11-17T07:01:52Z
2023-11-17T05:02:28Z,42.805,6.029,13.3035,4.60102,2470.646,2023-11-17T07:04:55Z
2023-11-17T05:05:31Z,42.805,6.029,13.3030,4.60102,2470.624,2023-11-17T07:07:58Z
2023-11-17T05:08:34Z,42.805,6.029,13.3032,4.60102,2470.693,2023-11-17T07:11:01Z
2023-11-17T05:11:37Z,42.805,6.029,13.3036,4.60103,2470.684,2023-11-17T07:14:04Z
2023-11-17T05:14:40Z,42.805,6.029,13.3029,4.60113,2470.717,2023-11-17T07:17:07Z
2023-11-17T05:17:43Z,42.805,6.029,13.3031,4.60102,2470.67,2023-11-17T07:20:11Z
2023-11-17T05:20:46Z,42.805,6.029,13.3034,4.60104,2470.684,2023-11-17T07:23:14Z
2023-11-17T05:23:49Z,42.805,6.029,13.3031,4.60104,2470.67,2023-11-17T07:26:17Z
2023-11-17T05:26:52Z,42.805,6.029,13.3032,4.60104,2470.693,2023-11-17T07:29:20Z
2023-11-17T05:29:55Z,42.805,6.029,13.3033,4.60103,2470.684,2023-11-17T07:32:23Z
2023-11-17T05:32:58Z,42.805,6.029,13.3036,4.60106,2470.707,2023-11-17T07:35:25Z
2023-11-17T05:36:01Z,42.805,6.029,13.3041,4.60110,2470.67,2023-11-17T07:38:28Z
2023-11-17T05:39:04Z,42.805,6.029,13.3042,4.60119,2470.684,2023-11-17T07:41:32Z
2023-11-17T05:42:07Z,42.805,6.029,13.3041,4.60117,2470.707,2023-11-17T07:44:35Z
2023-11-17T05:45:10Z,42.805,6.029,13.3041,4.60114,2470.693,2023-11-17T07:47:38Z
2023-11-17T05:48:13Z,42.805,6.029,13.3036,4.60117,2470.693,2023-11-17T07:50:41Z
2023-11-17T05:51:17Z,42.805,6.029,13.3041,4.60114,2470.717,2023-11-17T07:53:44Z
2023-11-17T05:54:20Z,42.805,6.029,13.3039,4.60116,2470.717,2023-11-17T07:56:47Z
2023-11-17T05:57:23Z,42.805,6.029,13.3039,4.60114,2470.717,2023-11-17T07:59:50Z
2023-11-17T06:00:26Z,42.805,6.029,13.3033,4.60110,2470.754,2023-11-17T08:02:53Z
2023-11-17T06:03:29Z,42.805,6.029,13.3034,4.60109,2470.717,2023-11-17T08:05:56Z
2023-11-17T06:06:32Z,42.805,6.029,13.3038,4.60108,2470.693,2023-11-17T08:08:59Z
2023-11-17T06:09:35Z,42.805,6.029,13.3034,4.60106,2470.726,2023-11-17T08:12:02Z
2023-11-17T06:12:38Z,42.805,6.029,13.3029,4.60106,2470.787,2023-11-17T08:15:05Z
2023-11-17T06:15:41Z,42.805,6.029,13.3032,4.60103,2470.74,2023-11-17T08:18:09Z
2023-11-17T06:18:44Z,42.805,6.029,13.3031,4.60104,2470.754,2023-11-17T08:21:12Z
2023-11-17T06:21:47Z,42.805,6.029,13.3036,4.60104,2470.754,2023-11-17T08:24:15Z
2023-11-17T06:24:50Z,42.805,6.029,13.3031,4.60105,2470.777,2023-11-17T08:27:18Z
2023-11-17T06:27:54Z,42.805,6.029,13.3031,4.60104,2470.8,2023-11-17T08:30:21Z
2023-11-17T06:30:57Z,42.805,6.029,13.3038,4.60105,2470.763,2023-11-17T08:33:24Z
2023-11-17T06:34:00Z,42.805,6.029,13.3036,4.60109,2470.763,2023-11-17T08:36:27Z
2023-11-17T06:37:03Z,42.805,6.029,13.3035,4.60111,2470.717,2023-11-17T08:39:30Z
2023-11-17T06:40:06Z,42.805,6.029,13.3037,4.60110,2470.787,2023-11-17T08:42:33Z
2023-11-17T06:43:09Z,42.805,6.029,13.3073,4.60147,2470.787,2023-11-17T08:45:36Z
2023-11-17T06:46:12Z,42.805,6.029,13.3073,4.60179,2470.787,2023-11-17T08:48:39Z
2023-11-17T06:49:15Z,42.805,6.029,13.3085,4.60188,2470.763,2023-11-17T08:51:42Z
2023-11-17T06:52:18Z,42.805,6.029,13.3061,4.60190,2470.787,2023-11-17T08:54:46Z
2023-11-17T06:55:21Z,42.805,6.029,13.3055,4.60178,2470.763,2023-11-17T08:57:49Z
2023-11-17T06:58:24Z,42.805,6.029,13.3059,4.60173,2470.8,2023-11-17T09:00:52Z
2023-11-17T07:01:27Z,42.805,6.029,13.3063,4.60201,2470.8,2023-11-17T09:03:55Z
2023-11-17T07:04:31Z,42.805,6.029,13.3073,4.60188,2470.787,2023-11-17T09:06:58Z
2023-11-17T07:07:34Z,42.805,6.029,13.3061,4.60157,2470.8,2023-11-17T09:10:01Z
2023-11-17T07:10:37Z,42.805,6.029,13.3060,4.60206,2470.847,2023-11-17T09:13:04Z
2023-11-17T07:13:40Z,42.805,6.029,13.3063,4.60170,2470.81,2023-11-17T09:16:07Z
2023-11-17T07:16:43Z,42.805,6.029,13.3061,4.60195,2470.8,2023-11-17T09:19:10Z
2023-11-17T07:19:46Z,42.805,6.029,13.3060,4.60194,2470.81,2023-11-17T09:22:13Z
2023-11-17T07:22:49Z,42.805,6.029,13.3049,4.60157,2470.824,2023-11-17T09:25:16Z
2023-11-17T07:25:52Z,42.805,6.029,13.3058,4.60232,2470.787,2023-11-17T09:28:19Z
2023-11-17T07:28:55Z,42.805,6.029,13.3067,4.60195,2470.824,2023-11-17T09:31:23Z
2023-11-17T07:31:58Z,42.805,6.029,13.3067,4.60198,2470.833,2023-11-17T09:34:26Z
2023-11-17T07:35:01Z,42.805,6.029,13.3070,4.60197,2470.833,2023-11-17T09:37:29Z
2023-11-17T07:38:04Z,42.805,6.029,13.3062,4.60205,2470.824,2023-11-17T09:40:32Z
2023-11-17T07:41:08Z,42.805,6.029,13.3063,4.60196,2470.824,2023-11-17T09:43:35Z
2023-11-17T07:44:11Z,42.805,6.029,13.3059,4.60195,2470.871,2023-11-17T09:46:38Z
2023-11-17T07:47:14Z,42.805,6.029,13.3058,4.60178,2470.894,2023-11-17T09:49:41Z
2023-11-17T07:50:17Z,42.805,6.029,13.3068,4.60224,2470.847,2023-11-17T09:52:44Z
2023-11-17T07:53:20Z,42.805,6.029,13.3051,4.60186,2470.871,2023-11-17T09:55:47Z
2023-11-17T07:56:23Z,42.805,6.029,13.3057,4.60183,2470.88,2023-11-17T09:58:50Z
2023-11-17T07:59:26Z,42.805,6.029,13.3070,4.60181,2470.857,2023-11-17T10:01:53Z
2023-11-17T08:02:29Z,42.805,6.029,13.3063,4.60200,2470.871,2023-11-17T10:04:56Z
2023-11-17T08:05:32Z,42.805,6.029,13.3060,4.60180,2470.857,2023-11-17T10:08:00Z
2023-11-17T08:08:35Z,42.805,6.029,13.3063,4.60202,2470.894,2023-11-17T10:11:03Z
2023-11-17T08:11:38Z,42.805,6.029,13.3061,4.60211,2470.857,2023-11-17T10:14:06Z
2023-11-17T08:14:41Z,42.805,6.029,13.3066,4.60197,2470.857,2023-11-17T10:17:09Z
2023-11-17T08:17:45Z,42.805,6.029,13.3074,4.60201,2470.857,2023-11-17T10:20:12Z
2023-11-17T08:20:48Z,42.805,6.029,13.3077,4.60181,2470.871,2023-11-17T10:23:15Z
2023-11-17T08:23:51Z,42.805,6.029,13.3054,4.60187,2470.904,2023-11-17T10:26:18Z
2023-11-17T08:26:54Z,42.805,6.029,13.3082,4.60193,2470.894,2023-11-17T10:29:21Z
2023-11-17T08:29:57Z,42.805,6.029,13.3048,4.60188,2470.88,2023-11-17T10:32:24Z
2023-11-17T08:33:00Z,42.805,6.029,13.3075,4.60190,2470.88,2023-11-17T10:35:27Z
2023-11-17T08:36:03Z,42.805,6.029,13.3062,4.60195,2470.88,2023-11-17T10:38:30Z
2023-11-17T08:39:06Z,42.805,6.029,13.3071,4.60173,2470.88,2023-11-17T10:41:33Z
2023-11-17T08:42:09Z,42.805,6.029,13.3055,4.60173,2470.904,2023-11-17T10:44:37Z
2023-11-17T08:45:12Z,42.805,6.029,13.3063,4.60182,2470.894,2023-11-17T10:47:40Z
2023-11-17T08:48:15Z,42.805,6.029,13.3063,4.60180,2470.88,2023-11-17T10:50:43Z
2023-11-17T08:51:18Z,42.805,6.029,13.3064,4.60190,2470.857,2023-11-17T10:53:46Z
2023-11-17T08:54:22Z,42.805,6.029,13.3075,4.60189,2470.857,2023-11-17T10:56:49Z
2023-11-17T08:57:25Z,42.805,6.029,13.3064,4.60183,2470.917,2023-11-17T10:59:52Z
2023-11-17T09:00:28Z,42.805,6.029,13.3062,4.60202,2470.904,2023-11-17T11:02:55Z
2023-11-17T09:03:31Z,42.805,6.029,13.3069,4.60161,2470.917,2023-11-17T11:05:58Z
2023-11-17T09:06:34Z,42.805,6.029,13.3062,4.60180,2470.857,2023-11-17T11:09:01Z
2023-11-17T09:09:37Z,42.805,6.029,13.3054,4.60175,2470.871,2023-11-17T11:12:04Z
2023-11-17T09:12:40Z,42.805,6.029,13.3054,4.60172,2470.904,2023-11-17T11:15:07Z
2023-11-17T09:15:43Z,42.805,6.029,13.3046,4.60183,2470.88,2023-11-17T11:18:11Z
2023-11-17T09:18:46Z,42.805,6.029,13.3062,4.60179,2470.894,2023-11-17T11:21:14Z
2023-11-17T09:21:49Z,42.805,6.029,13.3067,4.60163,2470.917,2023-11-17T11:24:17Z
2023-11-17T09:24:52Z,42.805,6.029,13.3051,4.60144,2470.894,2023-11-17T11:27:20Z
2023-11-17T09:27:56Z,42.805,6.029,13.3054,4.60192,2470.904,2023-11-17T11:30:23Z
2023-11-17T09:30:59Z,42.805,6.029,13.3046,4.60165,2470.917,2023-11-17T11:33:26Z
2023-11-17T09:34:02Z,42.805,6.029,13.3078,4.60166,2470.904,2023-11-17T11:36:29Z
2023-11-17T09:37:05Z,42.805,6.029,13.3053,4.60174,2470.88,2023-11-17T11:39:32Z
2023-11-17T09:40:08Z,42.805,6.029,13.3051,4.60185,2470.871,2023-11-17T11:42:35Z
2023-11-17T09:43:11Z,42.805,6.029,13.3058,4.60181,2470.88,2023-11-17T11:45:38Z
2023-11-17T09:46:14Z,42.805,6.029,13.3058,4.60186,2470.88,2023-11-17T11:48:41Z
2023-11-17T09:49:17Z,42.805,6.029,13.3056,4.60161,2470.904,2023-11-17T11:51:45Z
2023-11-17T09:52:20Z,42.805,6.029,13.3058,4.60185,2470.857,2023-11-17T11:54:48Z
2023-11-17T09:55:23Z,42.805,6.029,13.3053,4.60174,2470.88,2023-11-17T11:57:51Z
2023-11-17T09:58:26Z,42.805,6.029,13.3048,4.60173,2470.894,2023-11-17T12:00:54Z
2023-11-17T10:01:30Z,42.805,6.029,13.3043,4.60167,2470.88,2023-11-17T12:03:57Z
2023-11-17T10:04:33Z,42.805,6.029,13.3071,4.60173,2470.857,2023-11-17T12:07:00Z
2023-11-17T10:07:36Z,42.805,6.029,13.3046,4.60161,2470.904,2023-11-17T12:10:03Z
2023-11-17T10:10:39Z,42.805,6.029,13.3072,4.60184,2470.857,2023-11-17T12:13:06Z
2023-11-17T10:13:42Z,42.805,6.029,13.3060,4.60193,2470.917,2023-11-17T12:16:09Z
2023-11-17T10:16:45Z,42.805,6.029,13.3067,4.60181,2470.904,2023-11-17T12:19:12Z
2023-11-17T10:19:48Z,42.805,6.029,13.3069,4.60199,2470.95,2023-11-17T12:22:15Z
2023-11-17T10:22:51Z,42.805,6.029,13.3047,4.60184,2470.857,2023-11-17T12:25:18Z
2023-11-17T10:25:54Z,42.805,6.029,13.3061,4.60175,2470.904,2023-11-17T12:28:22Z
2023-11-17T10:28:57Z,42.805,6.029,13.3063,4.60173,2470.927,2023-11-17T12:31:25Z
2023-11-17T10:32:00Z,42.805,6.029,13.3070,4.60196,2470.857,2023-11-17T12:34:28Z
2023-11-17T10:35:03Z,42.805,6.029,13.3081,4.60178,2470.917,2023-11-17T12:37:31Z
2023-11-17T10:38:07Z,42.805,6.029,13.3076,4.60167,2470.857,2023-11-17T12:40:34Z
2023-11-17T10:41:10Z,42.805,6.029,13.3062,4.60212,2470.89,2023-11-17T12:43:37Z
2023-11-17T10:44:13Z,42.805,6.029,13.3059,4.60168,2470.857,2023-11-17T12:46:40Z
2023-11-17T10:47:16Z,42.805,6.029,13.3054,4.60173,2470.894,2023-11-17T12:49:43Z
2023-11-17T10:50:19Z,42.805,6.029,13.3057,4.60168,2470.866,2023-11-17T12:52:46Z
2023-11-17T10:53:22Z,42.805,6.029,13.3062,4.60178,2470.894,2023-11-17T12:55:49Z
2023-11-17T10:56:25Z,42.805,6.029,13.3067,4.60170,2470.917,2023-11-17T12:58:52Z
2023-11-17T10:59:28Z,42.805,6.029,13.3083,4.60190,2470.894,2023-11-17T13:01:56Z
2023-11-17T11:02:31Z,42.805,6.029,13.3067,4.60204,2470.904,2023-11-17T13:04:59Z
2023-11-17T11:05:34Z,42.805,6.029,13.3070,4.60202,2470.871,2023-11-17T13:08:02Z
2023-11-17T11:08:37Z,42.805,6.029,13.3073,4.60193,2470.871,2023-11-17T13:11:05Z
2023-11-17T11:11:41Z,42.805,6.029,13.3080,4.60194,2470.88,2023-11-17T13:14:08Z
2023-11-17T11:14:44Z,42.805,6.029,13.3070,4.60169,2470.894,2023-11-17T13:17:11Z
2023-11-17T11:17:47Z,42.805,6.029,13.3070,4.60190,2470.857,2023-11-17T13:20:14Z
2023-11-17T11:20:50Z,42.805,6.029,13.3058,4.60190,2470.871,2023-11-17T13:23:17Z
2023-11-17T11:23:53Z,42.805,6.029,13.3067,4.60188,2470.833,2023-11-17T13:26:20Z
2023-11-17T11:26:56Z,42.805,6.029,13.3054,4.60170,2470.857,2023-11-17T13:29:23Z
2023-11-17T11:29:59Z,42.805,6.029,13.3055,4.60152,2470.857,2023-11-17T13:32:26Z
2023-11-17T11:33:02Z,42.805,6.029,13.3049,4.60141,2470.857,2023-11-17T13:35:30Z
2023-11-17T11:36:05Z,42.805,6.029,13.3052,4.60168,2470.871,2023-11-17T13:38:33Z
2023-11-17T11:39:08Z,42.805,6.029,13.3056,4.60173,2470.857,2023-11-17T13:41:36Z
2023-11-17T11:42:11Z,42.805,6.029,13.3058,4.60180,2470.857,2023-11-17T13:44:39Z
2023-11-17T11:45:15Z,42.805,6.029,13.3059,4.60185,2470.857,2023-11-17T13:47:42Z
2023-11-17T11:48:18Z,42.805,6.029,13.3062,4.60188,2470.871,2023-11-17T13:50:45Z
2023-11-17T11:51:21Z,42.805,6.029,13.3061,4.60196,2470.833,2023-11-17T13:53:48Z
2023-11-17T11:54:24Z,42.805,6.029,13.3053,4.60168,2470.833,2023-11-17T13:56:51Z
2023-11-17T11:57:27Z,42.805,6.029,13.3056,4.60152,2470.871,2023-11-17T13:59:54Z
2023-11-17T12:00:30Z,42.805,6.029,13.3067,4.60148,2470.833,2023-11-17T14:02:57Z
2023-11-17T12:03:33Z,42.805,6.029,13.3052,4.60152,2470.824,2023-11-17T14:06:00Z
2023-11-17T12:06:36Z,42.805,6.029,13.3067,4.60156,2470.833,2023-11-17T14:09:03Z
2023-11-17T12:09:39Z,42.805,6.029,13.3059,4.60180,2470.847,2023-11-17T14:12:07Z
2023-11-17T12:12:42Z,42.805,6.029,13.3053,4.60176,2470.871,2023-11-17T14:15:10Z
2023-11-17T12:15:45Z,42.805,6.029,13.3067,4.60178,2470.833,2023-11-17T14:18:13Z
2023-11-17T12:18:48Z,42.805,6.029,13.3063,4.60193,2470.847,2023-11-17T14:21:16Z
2023-11-17T12:21:52Z,42.805,6.029,13.3096,4.60188,2470.833,2023-11-17T14:24:19Z
2023-11-17T12:24:55Z,42.805,6.029,13.3073,4.60208,2470.833,2023-11-17T14:27:22Z
2023-11-17T12:27:58Z,42.805,6.029,13.3085,4.60183,2470.81,2023-11-17T14:30:25Z
2023-11-17T12:31:01Z,42.805,6.029,13.3073,4.60170,2470.81,2023-11-17T14:33:28Z
2023-11-17T12:34:04Z,42.805,6.029,13.3081,4.60185,2470.81,2023-11-17T14:36:31Z
2023-11-17T12:37:07Z,42.805,6.029,13.3070,4.60174,2470.847,2023-11-17T14:39:34Z
2023-11-17T12:40:10Z,42.805,6.029,13.3073,4.60168,2470.81,2023-11-17T14:42:37Z
2023-11-17T12:43:13Z,42.805,6.029,13.3063,4.60200,2470.81,2023-11-17T14:45:41Z
2023-11-17T12:46:16Z,42.805,6.029,13.3074,4.60191,2470.8,2023-11-17T14:48:44Z
2023-11-17T12:49:19Z,42.805,6.029,13.3066,4.60187,2470.81,2023-11-17T14:51:47Z
2023-11-17T12:52:22Z,42.805,6.029,13.3058,4.60195,2470.833,2023-11-17T14:54:50Z
2023-11-17T12:55:26Z,42.805,6.029,13.3059,4.60198,2470.81,2023-11-17T14:57:53Z
2023-11-17T12:58:29Z,42.805,6.029,13.3051,4.60180,2470.787,2023-11-17T15:00:56Z
2023-11-17T13:01:32Z,42.805,6.029,13.3101,4.60197,2470.8,2023-11-17T15:03:59Z
2023-11-17T13:04:35Z,42.805,6.029,13.3076,4.60190,2470.8,2023-11-17T15:07:02Z
2023-11-17T13:07:38Z,42.805,6.029,13.3088,4.60170,2470.824,2023-11-17T15:10:05Z
2023-11-17T13:10:41Z,42.805,6.029,13.3056,4.60165,2470.824,2023-11-17T15:13:08Z
2023-11-17T13:13:44Z,42.805,6.029,13.3062,4.60173,2470.824,2023-11-17T15:16:11Z
2023-11-17T13:16:47Z,42.805,6.029,13.3069,4.60161,2470.787,2023-11-17T15:19:15Z
2023-11-17T13:19:50Z,42.805,6.029,13.3081,4.60198,2470.824,2023-11-17T15:22:18Z
2023-11-17T13:22:53Z,42.805,6.029,13.3076,4.60172,2470.787,2023-11-17T15:25:21Z
2023-11-17T13:25:56Z,42.805,6.029,13.3073,4.60208,2470.81,2023-11-17T15:28:24Z
2023-11-17T13:29:00Z,42.805,6.029,13.3089,4.60204,2470.81,2023-11-17T15:31:27Z
2023-11-17T13:32:04Z,42.805,6.029,13.3098,4.60170,2470.8,2023-11-17T15:34:31Z
2023-11-17T13:35:07Z,42.805,6.029,13.3098,4.60180,2470.787,2023-11-17T15:37:34Z
2023-11-17T13:38:10Z,42.805,6.029,13.3096,4.60221,2470.777,2023-11-17T15:40:38Z
2023-11-17T13:41:13Z,42.805,6.029,13.3090,4.60178,2470.787,2023-11-17T15:43:41Z
2023-11-17T13:44:16Z,42.805,6.029,13.3100,4.60144,2470.8,2023-11-17T15:46:44Z
2023-11-17T13:47:19Z,42.805,6.029,13.3124,4.60137,2470.777,2023-11-17T15:49:47Z
2023-11-17T13:50:23Z,42.805,6.029,13.3069,4.60175,2470.8,2023-11-17T15:52:50Z
2023-11-17T13:53:26Z,42.805,6.029,13.3077,4.60203,2470.763,2023-11-17T15:55:53Z
2023-11-17T13:56:29Z,42.805,6.029,13.3091,4.60214,2470.777,2023-11-17T15:58:56Z
2023-11-17T13:59:32Z,42.805,6.029,13.3091,4.60198,2470.8,2023-11-17T16:01:59Z
2023-11-17T14:02:35Z,42.805,6.029,13.3092,4.60213,2470.777,2023-11-17T16:05:02Z
2023-11-17T14:05:38Z,42.805,6.029,13.3109,4.60191,2470.754,2023-11-17T16:08:05Z
2023-11-17T14:08:41Z,42.805,6.029,13.3113,4.60190,2470.754,2023-11-17T16:11:08Z
2023-11-17T14:11:44Z,42.805,6.029,13.3113,4.60157,2470.777,2023-11-17T16:14:11Z
2023-11-17T14:14:47Z,42.805,6.029,13.3079,4.60132,2470.777,2023-11-17T16:17:15Z
2023-11-17T14:17:50Z,42.805,6.029,13.3080,4.60163,2470.787,2023-11-17T16:20:18Z
2023-11-17T14:20:53Z,42.805,6.029,13.3073,4.60155,2470.763,2023-11-17T16:23:21Z
2023-11-17T14:23:56Z,42.805,6.029,13.3121,4.60184,2470.787,2023-11-17T16:26:24Z
2023-11-17T14:27:00Z,42.805,6.029,13.3085,4.60190,2470.763,2023-11-17T16:29:27Z
2023-11-17T14:30:03Z,42.805,6.029,13.3092,4.60183,2470.763,2023-11-17T16:32:30Z
2023-11-17T14:33:06Z,42.805,6.029,13.3090,4.60194,2470.754,2023-11-17T16:35:33Z
2023-11-17T14:36:09Z,42.805,6.029,13.3089,4.60182,2470.754,2023-11-17T16:38:36Z
2023-11-17T14:39:12Z,42.805,6.029,13.3093,4.60193,2470.763,2023-11-17T16:41:39Z
2023-11-17T14:42:15Z,42.805,6.029,13.3096,4.60162,2470.754,2023-11-17T16:44:42Z
2023-11-17T14:45:18Z,42.805,6.029,13.3063,4.60146,2470.763,2023-11-17T16:47:45Z
2023-11-17T14:48:21Z,42.805,6.029,13.3082,4.60157,2470.763,2023-11-17T16:50:49Z
2023-11-17T14:51:24Z,42.805,6.029,13.3084,4.60192,2470.754,2023-11-17T16:53:52Z
2023-11-17T14:54:27Z,42.805,6.029,13.3085,4.60190,2470.763,2023-11-17T16:56:55Z
2023-11-17T14:57:30Z,42.805,6.029,13.3109,4.60137,2470.777,2023-11-17T16:59:58Z
2023-11-17T15:00:33Z,42.805,6.029,13.3066,4.60180,2470.763,2023-11-17T17:03:01Z